FENGYUN 1C DEB

Satellite information

Favourite Embed

Satellite Type and Status

DEBRISIN ORBIT

Key statistics

Satellite FENGYUN 1C DEB at a glance.

Uptime

9555

Days in orbit

Revolutions

≈ 14.1

Per day

Orbit

SSO

Sun Synchronous Orbit

Inclination

98.8

Latest

Satellite identification and parameters

Extended collection of information and parameters for FENGYUN 1C DEB.

Object identification

Identified? True

Debris? True

Object name: FENGYUN 1C DEB

International designator: 1999-025CUW

Object number (NORAD): 32200

Object ID (CCSDS): 32200

Country: PEOPLES REPUBLIC OF CHINA (PRC)

Current information (Y/N): Y

RCS size: SMALL

Orbital parameters

Period: 101.768 minutes

Inclination: 98.8042 deg

SMA: 7220.519 km

Apoapsis: 871.848 km

Periapsis: 812.92 km

RAAN: 238.2151 deg

Eccentricy: 0.0040806

Argument of periapsis: 28.5622 deg

Mean anomaly: 331.7775 deg

Mean motion: 14.14979344 rev/day

Mean motion (dot): 0.00001346 rev/day2

B* drag term: 0.00071228 1/REarth

Two-line elements (TLE)

Creation date: July 6, 2025, 6:05 p.m.

Reference frame: TEME

Reference center: EARTH

Epoch: July 6, 2025, 2:23 a.m. UTC

TLE line 0: 0 FENGYUN 1C DEB

TLE line 1: 1 32200U 99025CUW 25187.09982526 .00001346 00000-0 71228-3 0 9993

TLE line 2: 2 32200 98.8042 238.2151 0040806 28.5622 331.7775 14.14979344921051

Live tracking on map

Real-time ground track for satellite FENGYUN 1C DEB.

In-orbit conjunctions

A list of the most updated potential collisions computed for object FENGYUN 1C DEB.

Target Orbit TCA Probability of collision Miss distance Type
CZ-6A DEB SSO 2025-05-03 00:18:19 0.0001794491 50.0 (m) DEBRIS
METEOR 2-6 LEO 2025-01-08 14:53:23 0.00117597 153.0 (m) PAYLOAD

Associated space launch

Chinese polar orbiting meteorological satellite

FENGYUN 1C DEB was lifted into orbit during the mission ‘Long March 4B | Feng Yun 1C’, on board a Long March 4B space rocket.

The launch took place on May 10, 1999, 1:33 a.m. from Launch Complex 7.

For more information about the launch, click the button.

Launch to space Long March 4B | Feng Yun 1C
Long March 4B | Feng Yun 1C

Agency: N/A

Status: Launch Successful

Launch date: May 10, 1999, 1:33 a.m. UTC

Rocket: Long March 4B

Launch pad: Launch Complex 7

Location: Taiyuan Satellite Launch Center, People's Republic of China

...

Latest news about this satellite

There are no fresh news available about this satellite. Check back as we update our databases every day.


Newsletter sign-up

Weekly statistics, charts and insights to help you stay on top of the space industry.